OVERFALLS Weather Reports


Display with metric or nautical units.
time (UTC)temp
F
wind
direction
speed
MPH
gust
MPH
rain 1hr
in
rain 24hr
in
rain mn
in
humidity
%
barometer
mb
20260902171608 77 61 8.0 14.0 0.00 0.57 0.48 87 1019.8
20260902170053 77 74 8.0 14.0 0.00 0.57 0.48 85 1019.8
20260902164602 77 76 6.0 12.0 0.00 0.57 0.48 87 1019.5
20260902163054 77 66 10.0 15.0 0.00 0.57 0.48 87 1019.7
20260902161600 78 73 8.0 15.0 0.00 0.57 0.48 86 1019.6
20260902160049 77 103 10.0 15.0 0.00 0.57 0.48 86 1019.6
20260902154604 78 73 9.0 17.0 0.00 0.57 0.48 87 1019.6
20260902153056 78 77 10.0 16.0 0.00 0.57 0.48 87 1019.6
20260902151555 78 76 12.0 17.0 0.00 0.57 0.48 88 1019.6
20260902150052 78 69 9.0 17.0 0.00 0.57 0.48 88 1019.8
20260902144555 77 71 10.0 16.0 0.00 0.57 0.48 89 1019.9
20260902143053 77 92 7.0 13.0 0.00 0.57 0.48 90 1019.9
20260902141553 77 69 6.0 11.0 0.00 0.57 0.48 91 1019.8
20260902140051 77 57 6.0 13.0 0.00 0.57 0.48 90 1019.5
20260902134611 77 60 9.0 13.0 0.00 0.57 0.48 90 1019.3
20260902133059 77 99 7.0 14.0 0.00 0.57 0.48 90 1019.0
20260902131552 76 84 7.0 13.0 0.00 0.57 0.48 91 1018.9
20260902130046 76 81 9.0 14.0 0.00 0.57 0.48 92 1018.7
20260902124602 75 104 7.0 14.0 0.00 0.56 0.48 94 1018.8
20260902123050 75 51 4.0 9.0 0.00 0.56 0.48 95 1018.8
20260902121551 75 23 5.0 10.0 0.00 0.56 0.48 95 1018.8
20260902120059 75 56 5.0 10.0 0.00 0.56 0.48 95 1018.8
20260902114557 74 69 4.0 9.0 0.00 0.56 0.48 95 1018.7
20260902113050 74 53 5.0 10.0 0.00 0.56 0.48 95 1018.7
20260902111554 74 72 4.0 9.0 0.00 0.56 0.48 94 1018.6
20260902110059 74 76 4.0 7.0 0.00 0.56 0.48 94 1018.6
20260902104554 74 78 5.0 10.0 0.00 0.56 0.48 94 1018.3
20260902103057 74 65 3.0 9.0 0.00 0.56 0.48 94 1018.1
20260902101554 74 67 5.0 9.0 0.00 0.56 0.48 92 1018.0
20260902100055 74 84 4.0 9.0 0.00 0.56 0.48 92 1017.9
20260902094554 74 55 4.0 6.0 0.00 0.56 0.48 93 1017.8
20260902093114 74 29 5.0 9.0 0.00 0.56 0.48 94 1017.8
20260902091556 74 19 3.0 8.0 0.00 0.56 0.48 96 1017.6
20260902090100 73 322 2.0 6.0 0.00 0.56 0.48 96 1017.5
20260902084557 73 306 2.0 6.0 0.00 0.56 0.48 96 1017.5
20260902083051 72 238 0.0 4.0 0.00 0.56 0.48 96 1017.2
20260902081613 72 217 1.0 5.0 0.00 0.56 0.48 95 1016.9
20260902080053 72 147 0.0 3.0 0.00 0.56 0.48 95 1016.8
20260902074554 72 147 1.0 3.0 0.00 0.56 0.48 95 1016.6
20260902073050 72 0 0.0 3.0 0.00 0.56 0.48 95 1016.5
20260902071603 72 147 1.0 3.0 0.00 0.56 0.48 95 1016.4
20260902070058 72 0 0.0 3.0 0.00 0.56 0.48 95 1016.3
20260902064606 72 147 0.0 2.0 0.00 0.56 0.48 95 1016.5
20260902063102 72 147 2.0 5.0 0.00 0.56 0.48 94 1016.8
20260902061555 72 0 1.0 3.0 0.00 0.56 0.48 94 1016.8
20260902060109 72 147 1.0 5.0 0.00 0.56 0.48 94 1016.6
20260902054554 72 172 3.0 7.0 0.16 0.56 0.48 94 1016.8
20260902053053 72 170 2.0 12.0 0.47 0.56 0.48 94 1016.9
20260902051558 72 200 5.0 9.0 0.47 0.56 0.48 94 1017.1
20260902050109 72 166 4.0 11.0 0.48 0.56 0.48 94 1017.8
20260902044607 73 105 10.0 18.0 0.29 0.37 0.29 93 1018.7
20260902043053 73 57 5.0 14.0 0.01 0.09 0.00 91 1017.7
20260902041558 73 104 9.0 14.0 0.02 0.09 0.00 92 1017.0
20260902040100 73 107 10.0 16.0 0.07 0.08 0.00 93 1017.1
20260902034600 73 98 9.0 22.0 0.08 0.08 0.08 92 1017.7
20260902033107 74 117 10.0 14.0 0.07 0.07 0.07 92 1017.2
20260902031558 74 218 3.0 14.0 0.07 0.07 0.07 90 1017.1
20260902030054 75 327 9.0 23.0 0.00 0.00 0.00 89 1017.3
20260902024601 77 36 9.0 21.0 0.00 0.00 0.00 85 1017.1
20260902023106 80 360 12.0 27.0 0.00 0.00 0.00 78 1017.0
20260902021557 83 217 4.0 9.0 0.00 0.00 0.00 79 1015.2
20260902020106 83 224 3.0 8.0 0.00 0.00 0.00 79 1015.3
20260902014550 83 232 5.0 10.0 0.00 0.00 0.00 79 1014.7
20260902013048 83 217 4.0 9.0 0.00 0.00 0.00 79 1014.9
20260902011555 84 209 3.0 9.0 0.00 0.00 0.00 78 1014.6
20260902010051 84 196 3.0 7.0 0.00 0.00 0.00 77 1014.7
20260902004552 84 200 3.0 6.0 0.00 0.00 0.00 76 1014.9
20260902003051 85 196 2.0 7.0 0.00 0.00 0.00 74 1014.7
20260902001556 85 206 2.0 6.0 0.00 0.00 0.00 73 1014.1
20260902000100 86 227 1.0 4.0 0.00 0.00 0.00 72 1014.3
20260901234550 87 227 2.0 4.0 0.00 0.00 0.00 70 1014.6
20260901233049 88 227 1.0 3.0 0.00 0.00 0.00 68 1014.6
20260901231557 88 228 1.0 4.0 0.00 0.00 0.00 66 1014.6
20260901230054 89 228 0.0 4.0 0.00 0.00 0.00 64 1014.7
20260901224552 90 228 2.0 4.0 0.00 0.00 0.00 63 1014.7
20260901223050 90 227 2.0 9.0 0.00 0.00 0.00 63 1014.6
20260901221556 90 250 4.0 8.0 0.00 0.00 0.00 62 1014.9
20260901220055 91 240 4.0 9.0 0.00 0.00 0.00 62 1014.9
20260901214548 91 240 4.0 12.0 0.00 0.00 0.00 61 1014.8
20260901213109 91 242 7.0 12.0 0.00 0.00 0.00 62 1015.0
20260901211553 91 292 6.0 11.0 0.00 0.00 0.00 60 1014.9
20260901210051 91 252 5.0 11.0 0.00 0.00 0.00 59 1015.1
20260901204550 91 238 8.0 13.0 0.00 0.00 0.00 59 1015.1
20260901203111 91 216 5.0 10.0 0.00 0.00 0.00 60 1015.0
20260901201550 91 249 6.0 10.0 0.00 0.00 0.00 60 1015.2
20260901200050 91 282 5.0 9.0 0.00 0.00 0.00 62 1015.4
20260901194548 91 246 6.0 13.0 0.00 0.00 0.00 61 1015.6
20260901193111 90 209 6.0 10.0 0.00 0.00 0.00 66 1015.6
20260901191553 89 248 5.0 8.0 0.00 0.00 0.00 67 1015.5
20260901190105 89 259 3.0 8.0 0.00 0.00 0.00 69 1015.5
20260901184600 89 273 2.0 7.0 0.00 0.00 0.00 68 1015.8
20260901183056 90 275 3.0 8.0 0.00 0.00 0.00 67 1015.7
20260901181601 90 246 5.0 9.0 0.00 0.00 0.00 67 1015.8
20260901180054 90 277 3.0 9.0 0.00 0.00 0.00 66 1015.9
20260901174548 91 264 4.0 12.0 0.00 0.00 0.00 64 1016.1
20260901173049 91 265 7.0 12.0 0.00 0.00 0.00 63 1016.0